This demonstration page uses our WeatherBlox Daily Observations layout. Learn more.

Left ArrowRight Arrow

41.86663, -103.66717

Hourly Observations for August 22, 2021

Temp ( °F °C ) Dew Point ( °F °C ) Humidity (%) Winds ( mph kmh ) Pressure ( in mb ) Visibility ( mi km ) Precip ( " mm )
12:53 am 00:53 Clear 68 20 48 8.9 49 49 SE 17 28 29.76 1008 10 16 N/A
1:53 am 01:53 Clear 68 20 49 9.4 51 51 ESE 17 28 29.75 1008 10 16 N/A
2:53 am 02:53 Clear 68 20 50 10 53 53 SE 20 31 29.73 1007 10 16 N/A
3:53 am 03:53 Mostly Clear 68 20 52 11.1 57 57 SSE 20 31 29.71 1006 10 16 N/A
4:19 am 04:19 Mostly Cloudy 70 21.1 53 11.7 55 55 NW 16 26 29.73 1007 10 16 N/A
4:29 am 04:29 Mostly Cloudy 70 21.1 53 11.7 55 55 WNW 12 19 29.72 1006 10 16 N/A
4:53 am 04:53 Cloudy 71 21.7 55 12.8 57 57 WSW 13 20 29.76 1008 10 16 N/A
5:53 am 05:53 Cloudy 68 20 44 6.7 42 42 W 14 22 29.79 1009 10 16 N/A
6:53 am 06:53 Sunny 65 18.3 44 6.7 47 47 W 9 15 29.78 1009 10 16 N/A
7:53 am 07:53 Sunny 70 21.1 45 7.2 41 41 WSW 10 17 29.80 1009 10 16 N/A
8:53 am 08:53 Sunny 73 22.8 45 7.2 37 37 W 14 22 29.79 1009 10 16 N/A
9:53 am 09:53 Sunny 78 25.6 46 7.8 32 32 W 17 28 29.76 1008 10 16 N/A
10:53 am 10:53 Sunny 86 30 48 8.9 27 27 W 15 24 29.74 1007 10 16 N/A
11:53 am 11:53 Sunny 89 31.7 46 7.8 23 23 NW 16 26 29.73 1007 10 16 N/A
12:53 pm 12:53 Sunny 91 32.8 44 6.7 20 20 W 17 28 29.70 1006 10 16 N/A
1:53 pm 13:53 Mostly Cloudy 84 28.9 49 9.4 30 30 NW 16 26 29.74 1007 10 16 N/A
2:53 pm 14:53 Sunny 90 32.2 47 8.3 23 23 WNW 20 31 29.72 1007 10 16 N/A
3:53 pm 15:53 Sunny 90 32.2 44 6.7 20 20 NW 15 24 29.72 1007 7 11 N/A
4:53 pm 16:53 Hazy 89 31.7 41 5 19 19 NW 15 24 29.72 1006 6 10 N/A
5:53 pm 17:53 Hazy 86 30 44 6.7 23 23 NW 13 20 29.73 1007 6 10 N/A
6:53 pm 18:53 Hazy 82 27.8 44 6.7 26 26 NNW 6 9 29.74 1007 6 10 N/A
7:53 pm 19:53 Hazy 71 21.7 51 10.6 49 49 ESE 8 13 29.77 1008 6 10 N/A
8:53 pm 20:53 Clear 66 18.9 51 10.6 59 59 E 5 7 29.80 1009 7 11 N/A
9:53 pm 21:53 Clear 65 18.3 48 8.9 54 54 N N/A 29.80 1009 7 11 N/A
10:53 pm 22:53 Clear 61 16.1 45 7.2 56 56 undefined N/A 29.80 1009 7 11 N/A
11:53 pm 23:53 Clear 58 14.4 48 8.9 70 70 undefined N/A 29.81 1010 7 11 N/A

Powered by AerisWeather